Hourly Data Report for January 20, 2022

RANKIN INLET A
NUNAVUT
Current Station Operator: NAVCAN

62°48'38.000" N
92°06'53.000" W
32.30 m
2303405
71083
YRT

Download Data

Hourly Data (January 2022)
Hourly Data Report for January 20, 2022
TIME
LST
Temp Definition
°C
Dew Point Definition
°C
Rel Hum Definition
%
Precip. Amount Definition
mm

Wind Dir Definition
10's deg

Wind Spd Definition
km/h
Visibility Definition
km
Stn Press Definition
kPa
Hmdx Definition


Wind Chill Definition


Weather Definition


00:00 -28.6 -32.5 70   29 24 1.0 100.75   -42 Ice Crystals,Blowing Snow
01:00 -28.1 -31.9 70   32 44 0.8 100.66   -46 Ice Crystals,Blowing Snow
02:00 -28.4 -32.2 70   33 39 0.6 100.68   -45 Ice Crystals,Blowing Snow
03:00 -28.6 -32.5 70   31 37 0.8 100.67   -45 Ice Crystals,Blowing Snow
04:00 -28.9 -32.8 70   31 30 2.0 100.66   -44 Ice Crystals,Blowing Snow
05:00 -30.0 -34.0 69   29 34 3.2 100.67   -46 Ice Crystals,Blowing Snow
06:00 -30.1 -34.0 69   30 26 4.0 100.60   -45 Ice Crystals,Blowing Snow
07:00 -30.5 -34.5 69   29 16 4.0 100.56   -42 Ice Crystals,Blowing Snow
08:00 -30.6 -34.7 69   30 13 12.9 100.44   -41 Ice Crystals,Blowing Snow
09:00 -30.7 -34.9 68   27 12 24.1 100.38   -41 Ice Crystals
10:00 -30.6 -34.7 68   31 11 24.1 100.26   -40 Ice Crystals
11:00 -30.7 -34.9 68   28 9 24.1 100.20   -39 Ice Crystals
12:00 -29.5 -33.5 69   26 10 24.1 100.11   -39 Mostly Cloudy
13:00 -29.4 -33.5 68   16 9 24.1 100.03   -38 Ice Crystals
14:00 -28.5 -32.5 69   20 9 24.1 99.95   -37 Ice Crystals
15:00 -28.5 -32.5 69   17 11 24.1 99.83   -38 Ice Crystals
16:00 -28.1 -31.9 70   14 16 24.1 99.72   -39 Ice Crystals
17:00 -27.2 -31.1 70   13 13 24.1 99.56   -37 Ice Crystals
18:00 -25.9 -30.0 70   13 12 24.1 99.38   -35 Ice Crystals
19:00 -24.3 -28.1 71   16 9 16.1 99.23   -32 Snow
20:00 -23.4 -26.9 74   21 10 16.1 99.15   -31 Snow
21:00 -23.1 -26.5 74   21 10 16.1 99.01   -31 Snow
22:00 -22.8 -26.3 73   22 14 19.3 98.88   -32 Snow
23:00 -22.7 -26.1 74   19 13 24.1 98.77   -32 Snow

Notes on Data Quality.

Legend

  • E = Estimated
  • M = Missing
  • NA = Not Available*
  • [empty] = Indicates an unobserved value
Date modified: